Vorticity
12 11 10 7 7 6 3 3 5 5 8 9 8 6 6 7 6 7 9 10 8 5 3 4 5 6 6 8 9 8 8 7 6 4 4 6 5 4 5 5 4 5 6 7 6 6 6 5 4 4 4 4 4 5 5 4 4 5 5 2 2 3 6 6 5 5 5 4 4 4 4 4 5 6 7 6 6 8 8 8 7 7 5 5 7 6 5 6 5 5 5 7 7 6 7 8 7
13 7 5 7 7 7 4 3 4 8 11 9 7 6 5 5 6 7 8 9 8 6 5 7 7 6 7 9 8 5 7 7 6 6 6 7 5 4 6 6 5 5 6 6 6 7 6 6 5 4 4 5 4 3 4 4 4 6 5 4 4 1 2 6 6 6 5 5 5 5 6 6 7 8 7 6 7 7 7 8 7 6 6 6 6 5 6 6 4 4 5 6 5 6 8 8 6
15 9 3 5 7 8 5 3 5 9 11 9 7 6 5 6 8 8 8 8 8 9 8 8 8 7 6 8 7 6 7 6 6 8 9 9 7 5 5 6 6 5 6 6 5 5 6 6 7 7 5 5 5 3 3 4 4 5 4 5 7 5 3 5 5 5 6 6 7 7 9 9 8 7 5 6 6 7 7 8 7 7 7 6 6 5 5 5 5 5 5 5 7 9 8 7 5
14 13 5 4 6 8 7 4 6 9 9 9 7 6 6 7 8 9 9 7 7 8 8 9 8 6 5 8 7 6 8 8 6 10 12 10 9 8 6 6 6 6 6 7 6 6 7 7 8 9 7 5 4 2 4 4 4 5 5 6 8 8 6 6 6 6 8 9 9 9 9 8 8 6 5 6 6 7 7 8 8 7 7 7 7 6 5 6 7 5 6 7 10 9 6 7 5
10 13 8 5 5 6 7 5 7 8 9 9 6 6 6 6 8 9 8 8 7 6 6 8 8 9 7 7 6 5 9 10 7 9 13 12 11 10 9 8 8 7 8 8 9 8 8 8 8 9 8 6 5 5 7 4 6 8 5 7 7 7 6 7 8 8 9 9 8 7 6 7 7 6 6 6 6 6 7 8 8 8 7 7 6 6 4 5 8 6 5 7 9 8 7 7 5
5 9 9 5 5 5 6 6 8 8 8 9 6 6 5 5 8 8 6 6 7 6 5 6 7 9 8 5 6 7 8 10 8 8 12 12 11 11 10 10 10 9 9 9 9 8 7 7 6 7 8 9 9 9 8 5 9 11 6 8 7 5 6 7 8 8 7 7 6 4 5 6 5 6 6 6 7 6 6 8 8 8 8 7 6 6 4 4 7 6 6 7 7 8 8 7 4
3 6 10 6 5 5 5 8 10 7 7 9 7 6 5 4 7 8 6 6 8 8 6 6 6 9 11 7 8 8 8 9 8 8 9 8 8 7 8 8 8 7 7 6 6 5 5 5 4 5 5 5 7 7 7 6 8 9 5 6 4 5 5 5 6 5 5 5 5 5 5 5 5 6 6 6 7 6 6 7 8 7 7 6 5 5 5 5 6 6 6 6 7 9 9 6 4
5 6 13 8 4 6 3 6 9 7 7 9 9 8 6 5 7 8 8 7 9 10 9 8 8 10 11 8 8 8 7 8 6 6 6 5 5 4 5 5 5 5 5 5 4 4 4 5 4 4 4 4 5 4 5 5 5 5 4 4 3 4 3 3 4 4 4 4 4 4 5 6 6 6 5 5 6 7 5 7 8 7 7 6 5 5 6 6 6 7 6 5 7 10 10 6 5
6 7 14 9 4 6 2 3 6 7 8 8 9 9 7 6 7 7 7 8 9 10 10 9 8 9 10 7 6 6 6 7 6 6 5 4 4 4 4 4 5 5 6 5 4 5 5 5 5 5 5 5 5 4 4 4 4 4 4 4 4 4 4 4 3 3 3 3 5 4 4 5 6 6 5 5 6 7 5 6 7 8 7 5 5 6 7 7 6 7 6 5 7 10 9 7 5
6 5 9 6 3 8 5 3 2 4 9 8 7 7 7 7 6 5 5 8 9 10 11 9 6 7 11 8 4 5 6 5 5 5 5 4 4 4 5 5 5 6 6 7 7 7 6 6 7 7 7 6 7 6 6 5 5 6 7 7 6 5 6 6 5 6 5 4 6 5 4 5 6 6 5 5 6 6 5 5 7 7 6 5 5 6 7 7 7 6 5 5 9 10 8 7 6
5 4 5 2 1 7 8 5 1 1 7 9 7 4 5 7 7 6 5 6 8 9 10 9 7 7 10 8 3 5 5 4 5 5 5 4 5 5 5 6 6 6 6 7 7 6 7 7 7 7 8 7 7 6 5 5 6 4 5 7 7 7 7 7 8 8 8 7 8 8 7 7 8 7 6 6 5 6 6 5 6 7 6 4 5 6 7 8 7 6 5 6 10 9 7 7 6
4 6 6 3 2 6 10 6 0 1 4 7 7 2 2 6 7 7 6 7 7 8 10 9 7 7 10 8 4 5 5 4 6 6 5 5 5 5 5 6 6 6 6 5 6 7 7 7 7 8 8 6 5 5 4 4 5 5 5 6 7 8 8 6 6 7 9 9 9 11 10 9 12 10 6 7 5 6 7 5 6 7 6 4 4 5 6 8 7 6 4 7 11 8 6 6 5
4 7 5 5 5 6 10 7 1 1 3 5 7 4 1 5 8 6 5 4 4 5 7 9 7 8 11 9 5 6 5 4 5 6 6 6 5 6 5 6 7 8 8 8 7 8 8 9 8 8 7 5 6 5 5 7 7 9 9 7 7 7 7 6 5 7 10 8 7 11 11 10 13 10 5 6 6 6 7 6 6 6 6 4 4 5 6 8 7 5 5 7 11 8 6 6 5
4 5 4 6 6 4 7 6 3 2 4 6 7 6 3 5 8 6 4 3 6 7 6 8 7 7 11 9 7 8 5 3 4 5 7 7 6 5 5 7 9 10 9 8 7 6 6 6 7 7 7 6 7 6 6 9 7 6 7 7 8 7 6 6 5 8 10 9 8 7 7 9 11 10 7 7 7 7 7 5 6 6 6 5 5 5 7 8 7 5 5 8 11 8 5 5 5
4 3 5 8 5 4 6 6 6 3 5 9 8 6 5 5 5 4 5 4 7 8 7 7 5 6 10 10 8 9 6 4 5 6 9 8 6 6 8 8 8 8 7 6 5 5 5 5 6 7 8 7 9 8 6 7 7 7 8 8 7 7 6 5 6 8 8 8 8 6 8 10 9 10 10 8 8 8 7 5 5 5 5 5 5 6 7 8 6 5 6 9 11 7 5 5 5
4 3 5 6 4 3 4 4 6 4 2 8 9 6 5 4 3 2 6 6 5 8 8 5 4 6 9 9 10 10 6 6 6 7 8 8 8 9 9 7 5 5 6 6 6 5 5 6 7 6 7 6 7 8 7 8 8 8 9 8 7 7 6 6 8 8 8 8 7 8 10 10 8 9 9 8 9 7 6 5 5 6 5 4 5 7 8 7 5 5 8 11 11 7 5 5 5
5 6 5 5 6 2 2 2 4 6 3 6 8 7 6 5 4 2 5 7 5 7 9 6 5 7 8 9 10 10 6 6 6 6 7 8 9 9 8 5 3 4 5 6 6 6 6 5 6 6 7 7 7 8 8 8 8 9 10 11 10 10 8 8 9 8 9 9 9 10 10 10 8 8 8 9 10 6 6 7 5 5 4 4 6 7 7 5 4 6 9 11 11 8 5 5 6
5 6 5 5 6 2 2 3 4 7 5 4 5 8 7 6 6 2 4 8 8 6 7 7 6 7 8 8 10 9 6 5 5 6 7 8 8 7 6 4 4 5 6 6 5 6 6 6 5 5 6 6 7 8 7 8 9 11 14 14 14 14 11 12 12 10 12 12 12 12 11 9 8 9 9 9 10 9 8 7 6 6 4 4 6 7 7 4 5 8 9 10 10 8 6 6 7
4 5 3 4 5 2 2 2 4 6 5 4 5 7 6 5 7 3 3 7 9 6 5 9 8 6 6 7 9 9 7 5 5 6 7 8 8 7 6 5 5 6 6 6 6 6 6 6 6 5 6 6 8 8 8 10 12 12 12 13 15 13 13 15 15 13 13 14 12 12 11 10 9 11 11 9 10 10 9 7 7 6 4 5 6 7 6 4 6 9 9 10 9 8 7 7 9
3 4 3 4 6 6 3 2 4 5 4 3 6 8 3 5 8 3 3 6 8 5 3 9 9 6 6 6 8 8 8 7 6 6 7 8 8 7 7 6 6 6 4 5 6 7 7 7 8 6 6 7 8 9 10 11 12 10 9 11 13 12 12 13 13 12 12 12 11 12 12 12 12 11 10 9 9 11 9 8 9 6 4 6 7 7 5 5 8 10 10 10 9 8 8 8 8
2 3 3 3 4 5 4 3 4 4 4 4 8 11 2 6 10 3 2 5 9 9 4 7 9 8 6 4 7 8 7 7 7 6 6 7 7 7 8 8 7 5 3 5 8 7 7 9 8 6 6 7 8 11 13 11 10 9 10 12 13 12 11 12 12 12 12 12 11 11 10 10 10 11 10 11 13 14 11 11 10 6 5 6 7 6 5 7 9 10 10 10 10 10 9 8 7
1 3 2 3 2 3 4 3 4 3 3 5 11 11 2 6 10 5 4 5 8 10 7 5 7 10 9 7 7 7 6 6 6 6 6 6 5 6 7 8 7 5 4 6 7 6 8 9 8 6 6 8 10 14 13 10 11 11 12 13 13 12 10 12 13 12 12 11 11 9 7 8 9 11 13 13 13 13 12 13 10 5 5 7 7 6 6 8 9 9 10 10 10 10 8 7 5
2 2 2 2 1 2 3 3 4 1 -0 5 12 10 5 9 11 7 5 5 6 8 8 5 5 9 10 10 7 6 6 5 6 6 6 6 5 6 7 8 8 7 7 7 6 6 8 9 8 8 8 9 10 14 13 10 11 11 11 11 11 12 11 11 12 12 11 11 10 10 9 11 12 12 15 16 17 18 18 14 8 6 8 9 7 5 7 9 9 9 10 10 10 8 6 4 4
3 2 2 0 0 1 1 4 4 0 -2 3 10 12 10 12 15 11 4 4 6 7 8 5 4 7 8 9 7 6 6 5 6 6 6 6 5 6 7 8 8 7 7 6 5 7 9 8 8 9 9 9 9 11 11 9 10 10 10 10 11 12 12 12 11 11 11 11 11 11 12 13 12 12 15 19 20 19 15 10 8 9 9 7 5 5 8 9 9 10 10 10 8 5 4 4 5
7 5 4 1 0 -1 0 3 3 1 -1 3 14 20 16 16 20 11 4 5 6 7 8 6 4 5 7 9 7 6 7 6 6 6 5 5 5 6 8 7 7 6 6 5 6 9 9 8 9 9 10 9 9 9 11 10 10 10 9 11 13 12 12 12 11 11 10 10 10 10 11 11 10 10 12 13 13 12 10 9 9 8 6 5 4 7 10 10 10 10 9 8 5 4 4 5 6
7 8 9 6 4 2 1 1 2 3 -0 7 18 24 20 17 21 10 2 5 5 7 8 5 4 5 6 9 9 7 7 7 6 6 5 5 6 6 8 7 7 6 5 5 8 10 9 8 8 8 9 9 9 8 9 11 10 10 9 10 12 11 12 11 9 9 8 8 9 9 10 9 9 10 9 9 9 9 9 8 6 5 5 5 6 10 10 10 10 9 7 5 3 4 6 7 7
5 6 8 9 9 6 5 2 7 6 2 14 19 35 44 22 15 9 1 6 5 7 9 5 5 5 6 8 10 7 5 8 6 6 6 5 6 6 7 7 6 6 5 7 8 9 8 8 8 8 8 10 10 9 8 9 10 10 9 9 9 9 10 9 8 8 7 8 8 10 10 10 9 10 9 8 8 7 6 5 5 4 5 6 9 11 10 9 9 6 5 4 5 7 7 8 8
6 7 5 7 10 9 10 6 14 9 7 23 12 33 63 27 8 7 1 8 6 6 9 6 6 5 6 7 9 8 4 7 6 6 6 5 6 6 8 8 6 6 6 7 7 8 8 7 8 7 8 9 10 9 7 8 9 10 10 9 9 7 8 8 8 8 8 8 7 8 9 10 10 10 9 8 7 5 5 6 5 5 7 9 11 10 8 7 6 4 5 6 7 8 8 8 9
7 8 5 7 8 9 13 10 18 11 9 30 9 18 51 18 3 7 1 9 7 7 8 6 7 4 6 7 9 9 4 6 7 6 7 6 6 6 8 7 6 6 5 6 7 7 7 7 7 7 7 8 9 9 7 7 8 9 10 10 10 9 9 9 9 9 9 9 8 7 7 9 9 9 8 7 7 6 5 5 6 8 10 10 10 9 7 6 4 5 6 7 8 8 8 9 9
7 8 6 7 6 6 13 13 16 7 3 26 14 17 34 8 2 8 2 11 9 6 7 7 7 3 7 7 7 10 6 5 6 7 7 6 6 6 8 7 5 6 5 7 8 6 6 6 6 6 7 8 9 8 7 7 7 9 9 10 10 10 10 11 12 10 9 9 9 7 6 7 8 8 6 5 5 5 5 6 8 10 11 10 9 7 6 5 5 6 8 8 8 8 8 9 9
7 9 9 8 6 5 11 12 11 5 4 21 20 22 23 1 3 9 4 11 10 6 5 7 7 3 8 8 6 8 7 6 5 7 8 6 6 6 7 7 6 6 6 7 8 6 6 6 6 6 7 7 8 8 8 7 7 7 8 9 9 9 10 10 11 11 9 10 10 9 7 6 7 7 5 4 4 4 6 9 11 12 10 9 6 5 6 6 6 7 7 7 8 8 8 8 8
8 8 10 9 7 6 10 11 11 6 6 17 19 18 11 -2 1 5 4 10 10 7 5 6 6 4 6 7 7 7 8 8 5 5 7 6 6 6 7 7 6 6 6 7 7 6 6 6 6 6 7 7 7 7 7 7 7 8 8 9 10 9 9 9 9 10 9 10 11 12 10 8 8 7 6 5 4 7 10 12 12 11 9 6 4 5 6 6 6 6 6 7 7 8 8 8 7
8 6 8 9 7 6 7 9 9 7 7 12 11 7 7 2 -1 -0 4 9 11 9 6 6 6 5 4 6 8 6 6 7 5 4 4 6 7 6 6 6 7 7 6 8 7 6 6 5 6 7 8 7 7 7 8 8 7 8 9 10 11 10 10 10 9 9 9 9 10 11 12 10 9 8 7 6 7 10 13 12 11 9 6 5 4 5 5 5 5 5 6 8 8 8 8 7 7
7 6 6 7 7 7 10 10 8 6 4 7 4 3 9 6 -0 2 5 8 10 9 7 7 6 5 4 5 7 6 5 5 5 5 3 5 7 6 6 5 7 7 6 8 7 7 5 5 6 7 8 8 7 7 7 9 9 9 9 10 11 10 10 10 10 11 11 11 9 9 10 10 10 9 8 8 11 13 12 11 9 6 5 4 5 4 4 5 5 6 8 9 9 9 9 8 8
6 6 7 8 5 4 8 10 11 9 4 6 5 2 6 5 2 5 7 9 9 7 6 6 5 6 5 5 7 6 5 5 5 5 4 5 7 6 5 5 7 7 7 7 8 8 6 5 6 7 8 8 8 8 7 8 10 11 10 9 10 9 9 9 9 10 12 12 12 10 10 10 10 11 11 12 13 12 10 8 6 4 4 4 4 4 4 4 5 6 8 9 10 10 9 9 8
5 6 8 10 8 4 4 6 12 14 7 5 7 5 5 7 6 4 7 13 11 8 8 7 6 6 6 5 7 7 6 5 5 5 5 5 7 6 4 5 6 6 7 7 7 8 7 5 5 6 8 9 8 8 8 8 10 10 9 8 8 7 7 8 8 9 10 11 12 12 13 13 13 13 14 14 12 10 7 5 3 4 4 4 4 4 4 4 5 6 8 10 10 9 8 8 8
5 6 7 9 8 7 6 2 7 14 10 5 5 6 5 5 6 4 6 11 12 10 9 8 8 7 7 5 5 7 9 8 5 6 6 5 6 6 5 5 6 6 8 8 7 7 7 5 5 5 6 9 9 9 9 9 9 9 7 7 6 6 5 6 6 7 8 9 10 11 12 13 13 13 12 11 9 6 4 3 4 5 4 4 3 3 4 5 6 7 8 9 9 8 8 8 8
6 7 8 8 6 5 5 1 1 3 5 7 6 5 6 5 6 7 4 4 8 11 9 7 7 7 7 7 5 6 8 10 8 6 6 6 6 5 4 6 5 5 7 10 8 7 8 6 5 5 5 8 9 9 10 9 9 8 7 7 6 5 5 6 6 6 6 7 7 8 9 10 10 9 9 8 6 4 4 4 5 5 4 4 4 4 5 5 6 7 8 8 8 8 9 8 8
6 7 7 8 7 5 3 3 3 -3 -8 3 9 3 3 4 4 5 4 3 5 10 11 9 7 6 7 7 7 6 4 7 9 7 6 5 5 5 4 5 6 4 6 10 9 6 8 7 6 5 5 7 8 8 10 10 9 8 7 6 5 6 6 6 6 6 6 6 6 6 7 7 7 7 7 5 5 4 4 5 4 4 4 5 5 5 6 4 5 6 7 7 7 7 8 7 7
6 7 7 8 8 9 6 3 6 4 -4 2 8 5 5 7 6 4 4 5 4 7 11 11 10 7 5 6 9 11 7 7 9 7 6 5 5 5 4 4 4 4 6 9 9 7 7 7 7 6 5 5 6 7 9 10 9 9 8 6 5 6 6 6 6 6 7 6 6 6 6 7 6 6 6 5 4 4 4 5 4 5 5 6 6 5 5 4 4 5 6 7 7 7 7 7 6
6 6 7 6 6 8 9 6 5 4 3 4 3 4 9 11 12 11 5 2 -0 2 7 8 10 9 6 4 6 11 11 10 10 8 5 5 4 4 5 5 4 4 6 8 9 7 6 7 8 7 5 5 5 6 7 8 9 9 8 6 6 6 6 6 6 6 6 6 7 6 6 7 6 6 5 5 5 5 5 5 5 5 6 6 6 5 5 5 4 5 7 8 7 7 7 6 5
8 8 7 6 4 5 7 9 6 1 4 7 -0 -0 8 9 12 13 6 2 -0 4 7 4 5 9 10 8 4 6 9 9 10 10 7 5 4 5 4 4 4 4 6 7 9 8 5 6 8 8 6 5 4 5 5 6 7 8 8 7 6 6 6 6 6 6 6 6 6 6 6 6 7 7 6 5 5 6 6 6 6 6 6 6 6 5 5 4 4 5 7 8 8 8 7 5 5
10 11 9 6 3 3 5 8 8 3 4 9 2 -2 3 7 13 14 9 6 6 11 11 3 2 4 8 11 7 4 6 6 8 12 13 9 6 7 4 3 4 5 6 6 8 9 6 5 7 8 7 6 5 4 5 5 5 6 7 7 7 5 5 5 5 5 5 6 6 6 6 6 6 6 6 6 6 7 7 7 6 6 5 5 5 5 5 5 5 6 6 7 8 8 8 7 6
11 13 12 7 3 4 6 7 9 7 4 7 7 3 3 6 10 13 11 8 6 11 13 6 2 3 4 8 9 7 5 5 5 8 14 13 8 7 5 2 4 5 5 6 7 7 6 6 7 6 6 7 6 4 4 4 4 5 5 6 7 6 5 5 5 5 4 5 6 6 6 5 6 6 6 6 6 6 6 6 5 5 5 5 5 6 7 7 7 7 7 7 7 7 9 8 6
10 13 13 7 4 5 6 3 7 11 7 6 9 6 4 8 8 8 10 8 2 5 14 12 3 1 6 6 6 7 6 4 5 6 11 13 9 7 5 3 5 6 5 6 7 7 6 7 8 7 5 7 8 6 5 4 3 4 5 5 6 6 5 5 6 6 5 5 5 6 6 6 6 6 6 6 6 5 5 6 6 6 6 6 7 8 8 9 9 8 7 7 7 7 8 8 7
10 11 14 8 2 3 6 3 2 7 9 8 11 7 1 5 9 8 8 8 4 1 9 18 12 3 6 8 5 6 6 4 5 6 8 9 9 9 6 4 5 5 5 6 7 7 6 7 8 7 5 5 7 7 6 6 5 4 5 5 5 6 6 6 6 6 5 6 6 5 6 6 6 6 7 6 6 6 6 7 7 7 8 7 7 7 7 8 8 7 6 7 8 8 7 7 6
10 11 14 9 2 1 5 6 2 3 6 3 9 12 2 -4 -1 3 4 5 7 4 3 13 18 10 5 5 4 5 6 6 4 5 7 6 7 10 9 7 7 5 4 6 7 7 6 6 8 7 5 5 7 7 7 7 6 6 6 5 5 6 6 5 6 7 6 6 6 6 6 6 6 6 7 7 6 6 6 6 6 6 7 7 6 5 6 6 6 6 5 5 7 8 7 7 6
9 13 15 11 7 4 3 5 5 5 7 3 3 14 15 7 -1 -1 3 4 5 5 5 10 18 16 9 4 2 2 3 6 5 3 6 7 5 8 10 10 10 9 7 6 6 7 6 5 7 7 6 5 6 6 7 7 7 7 7 7 7 6 6 6 6 6 7 7 7 6 6 5 6 7 6 7 7 6 6 5 5 5 5 6 6 6 6 6 5 6 5 4 5 7 7 7 7
9 11 16 12 7 6 8 13 10 2 5 8 1 4 16 18 12 6 5 8 8 4 5 9 12 16 18 12 5 3 2 3 6 3 3 7 6 5 8 11 11 10 10 9 8 7 7 6 6 7 7 5 6 7 6 6 7 7 6 7 7 7 7 7 7 7 6 7 7 7 7 6 6 7 7 7 6 6 6 6 6 6 5 5 6 7 7 7 7 7 7 7 7 7 8 8 8
11 11 17 17 9 3 3 14 24 13 4 7 6 9 17 18 19 16 9 9 13 9 5 7 5 5 16 24 16 8 5 3 5 6 1 2 6 6 5 7 9 9 8 10 11 9 7 7 6 6 6 5 5 6 7 6 5 6 6 5 6 7 7 7 7 7 7 7 7 6 6 6 6 7 7 7 7 7 6 6 6 7 7 7 7 8 8 7 7 8 8 9 8 7 8 8 7
12 11 15 19 15 7 -4 -3 17 22 6 2 10 17 16 12 15 18 12 9 11 11 7 7 7 2 6 23 26 14 9 8 4 4 4 1 2 5 6 6 5 6 6 8 13 12 8 7 7 6 6 6 6 5 6 6 5 5 5 5 5 5 6 6 6 6 7 6 6 7 7 6 6 6 6 6 7 8 8 8 7 7 7 8 8 9 9 8 7 8 8 10 10 10 10 9 8
13 12 13 18 17 17 6 -10 -4 9 5 4 11 14 10 4 5 9 10 10 9 10 10 6 9 10 6 19 33 22 9 12 10 4 3 4 3 3 4 6 5 5 5 5 10 13 10 9 8 7 6 5 5 4 4 5 4 4 5 5 6 5 5 5 5 6 7 7 6 6 7 7 6 5 5 6 6 7 8 8 9 8 7 7 8 9 9 8 9 8 7 9 10 10 10 10 9
10 10 12 17 16 17 16 4 -2 0 2 2 2 11 16 7 3 6 6 8 8 6 8 7 6 10 8 12 30 29 14 12 15 8 3 3 4 4 2 4 5 6 6 4 6 11 11 10 9 8 7 6 6 5 4 4 3 3 4 4 4 4 5 5 6 6 6 7 6 6 6 7 7 7 6 6 6 5 6 6 7 7 6 6 6 6 7 7 8 8 7 7 7 7 9 9 9
7 7 9 14 17 16 16 15 9 0 1 3 -2 5 17 10 4 8 6 5 9 6 6 8 6 8 9 7 15 25 27 25 16 5 4 6 6 5 3 3 4 5 6 3 3 7 9 11 11 9 8 6 6 6 5 4 4 3 2 3 4 4 5 5 5 6 6 6 6 6 6 6 6 6 6 6 6 6 5 5 6 6 6 6 6 5 6 6 6 6 6 6 6 6 6 6 6
8 6 6 8 14 18 18 18 15 3 0 8 5 -1 4 9 4 4 6 4 3 7 7 6 5 6 9 9 8 13 28 38 26 7 1 3 8 9 6 3 3 4 5 4 4 5 6 9 10 10 10 8 6 6 7 6 5 4 3 2 3 3 4 5 5 6 6 6 6 6 7 7 6 6 6 6 6 6 6 5 6 6 6 6 7 7 7 6 5 5 5 5 5 5 5 4 4
9 6 7 5 5 11 15 17 16 8 3 14 25 12 -4 2 8 1 5 8 2 3 6 5 5 5 6 9 8 6 13 24 26 23 15 4 3 10 11 7 3 3 3 4 5 5 4 7 9 9 9 9 8 6 7 7 6 5 5 4 4 4 4 5 6 6 6 6 6 6 6 7 7 7 7 6 6 6 6 6 6 7 7 7 8 9 9 8 7 7 7 7 6 6 6 6 6
10 7 8 8 6 7 8 13 16 16 12 10 22 28 7 -0 13 9 1 5 6 2 3 7 6 1 4 9 9 7 9 10 12 18 21 15 5 5 11 11 6 3 2 3 6 6 5 5 7 9 8 8 10 8 6 7 6 6 6 5 5 5 5 5 5 6 7 6 6 7 7 8 8 8 7 7 7 7 6 6 7 9 9 8 8 9 9 9 9 9 9 9 9 8 9 9 8
10 6 5 7 10 8 4 7 10 19 29 13 -2 15 20 5 6 10 4 5 8 3 2 8 5 0 4 6 4 6 7 7 10 10 11 18 14 4 8 13 8 4 4 4 5 6 5 6 5 6 8 8 8 8 7 5 5 5 6 6 6 5 5 6 7 7 7 6 6 7 7 8 8 8 8 9 9 9 7 6 7 8 9 8 9 9 8 9 9 9 9 9 8 8 8 7 7
Height
5896 5896 5896 5896 5896 5895 5895 5894 5894 5894 5894 5893 5893 5892 5892 5892 5892 5892 5892 5891 5891 5890 5890 5890 5891 5891 5891 5892 5892 5892 5892 5892 5892 5892 5893 5893 5893 5894 5895 5895 5896 5896 5897 5897 5898 5898 5899 5900 5900 5899 5900 5901 5901 5903 5904 5904 5904 5905 5906 5906 5905 5907 5911 5913 5909 5907 5908 5909 5910 5911 5912 5912 5913 5913 5913 5914 5915 5915 5915 5916 5916 5917 5918 5918 5918 5918 5919 5919 5919 5919 5919 5920 5920 5919 5919 5920 5921
5898 5898 5898 5897 5897 5896 5896 5895 5896 5895 5895 5894 5893 5893 5893 5893 5892 5893 5892 5892 5892 5891 5891 5891 5891 5892 5892 5893 5893 5893 5893 5893 5894 5894 5894 5894 5895 5895 5896 5896 5896 5897 5897 5898 5899 5899 5899 5900 5900 5900 5901 5902 5903 5903 5904 5905 5905 5905 5906 5907 5908 5911 5912 5911 5910 5909 5909 5910 5910 5911 5912 5912 5913 5913 5914 5914 5915 5915 5915 5916 5917 5917 5918 5918 5918 5919 5919 5919 5920 5920 5921 5922 5921 5919 5919 5920 5921
5898 5899 5899 5898 5898 5897 5897 5897 5897 5896 5895 5895 5894 5893 5893 5893 5893 5893 5893 5892 5892 5892 5892 5892 5892 5892 5893 5894 5894 5894 5894 5894 5895 5895 5895 5896 5896 5896 5896 5897 5897 5897 5898 5899 5899 5900 5900 5901 5901 5901 5902 5903 5904 5904 5905 5904 5904 5906 5907 5909 5912 5913 5911 5910 5910 5909 5909 5910 5910 5911 5912 5912 5913 5913 5914 5914 5914 5915 5915 5916 5917 5918 5918 5919 5919 5919 5919 5920 5920 5920 5921 5921 5922 5921 5919 5920 5922
5899 5899 5899 5899 5898 5898 5898 5898 5898 5897 5896 5896 5895 5894 5894 5894 5894 5894 5894 5893 5893 5893 5892 5893 5893 5893 5894 5894 5895 5895 5895 5896 5896 5896 5897 5897 5898 5898 5897 5897 5898 5898 5898 5899 5900 5900 5901 5901 5902 5902 5903 5904 5904 5905 5906 5905 5905 5907 5910 5913 5913 5912 5910 5910 5910 5910 5910 5910 5911 5912 5912 5913 5913 5913 5914 5914 5914 5914 5915 5917 5918 5918 5919 5919 5919 5920 5920 5921 5921 5921 5921 5920 5923 5922 5920 5921 5922
5900 5900 5900 5900 5899 5899 5898 5898 5898 5898 5897 5896 5895 5895 5895 5894 5895 5895 5894 5893 5893 5893 5893 5894 5894 5894 5894 5895 5895 5895 5896 5896 5896 5897 5898 5898 5899 5899 5899 5899 5899 5899 5899 5899 5900 5900 5901 5901 5902 5903 5905 5906 5907 5908 5909 5909 5909 5911 5912 5913 5912 5910 5909 5909 5910 5911 5911 5911 5912 5912 5913 5913 5913 5914 5914 5914 5914 5915 5916 5917 5918 5919 5919 5920 5920 5921 5921 5922 5921 5921 5921 5922 5924 5923 5921 5922 5923
5901 5901 5901 5900 5900 5899 5899 5899 5899 5899 5898 5897 5896 5895 5895 5895 5895 5895 5895 5894 5894 5893 5893 5894 5895 5895 5895 5896 5896 5896 5896 5897 5897 5897 5898 5899 5899 5899 5900 5900 5900 5900 5900 5900 5901 5901 5901 5901 5902 5902 5904 5906 5908 5910 5910 5909 5910 5911 5911 5911 5909 5909 5909 5910 5911 5911 5911 5912 5912 5912 5913 5914 5914 5914 5914 5915 5915 5915 5916 5917 5918 5919 5920 5920 5921 5921 5922 5922 5922 5922 5922 5923 5925 5923 5922 5923 5924
5901 5901 5901 5900 5900 5900 5900 5900 5900 5899 5899 5898 5897 5896 5896 5896 5896 5896 5896 5895 5894 5894 5894 5894 5895 5896 5896 5896 5897 5896 5896 5897 5897 5898 5899 5900 5900 5900 5900 5901 5901 5901 5901 5901 5902 5902 5902 5902 5902 5902 5903 5905 5907 5907 5907 5907 5908 5909 5909 5909 5908 5909 5910 5911 5911 5911 5911 5912 5912 5913 5913 5914 5914 5914 5914 5915 5916 5916 5916 5917 5919 5920 5920 5921 5921 5922 5923 5923 5923 5923 5923 5924 5925 5924 5924 5925 5925
5902 5901 5901 5901 5901 5901 5901 5901 5901 5900 5900 5899 5898 5898 5897 5897 5897 5897 5897 5896 5895 5895 5895 5895 5896 5896 5897 5897 5897 5897 5897 5897 5898 5899 5899 5901 5900 5900 5901 5902 5902 5903 5902 5903 5903 5903 5903 5903 5903 5903 5904 5905 5906 5905 5906 5907 5907 5907 5908 5908 5909 5910 5911 5911 5911 5911 5911 5912 5912 5913 5913 5914 5914 5914 5914 5916 5917 5917 5917 5917 5919 5920 5921 5921 5922 5923 5923 5924 5923 5923 5924 5925 5925 5925 5926 5927 5927
5903 5902 5902 5901 5901 5902 5902 5902 5901 5901 5901 5900 5900 5899 5899 5899 5899 5898 5897 5896 5896 5896 5896 5896 5896 5897 5897 5898 5898 5898 5898 5899 5899 5900 5900 5901 5901 5900 5901 5902 5903 5903 5903 5904 5904 5904 5904 5904 5904 5904 5905 5906 5906 5905 5906 5907 5907 5907 5908 5909 5909 5910 5911 5911 5911 5911 5911 5911 5912 5912 5913 5913 5913 5914 5914 5915 5917 5917 5917 5918 5919 5920 5921 5922 5923 5923 5924 5924 5924 5924 5925 5926 5926 5926 5927 5928 5929
5903 5903 5903 5902 5902 5903 5903 5902 5902 5902 5902 5902 5901 5901 5900 5900 5900 5899 5898 5897 5897 5897 5897 5897 5897 5897 5898 5898 5899 5899 5899 5900 5900 5901 5901 5901 5901 5901 5902 5903 5903 5904 5904 5904 5904 5904 5904 5904 5904 5905 5907 5908 5906 5905 5907 5908 5908 5908 5908 5909 5910 5910 5910 5910 5910 5910 5911 5911 5911 5911 5912 5912 5913 5914 5914 5915 5916 5917 5918 5918 5919 5920 5921 5923 5924 5924 5925 5925 5925 5925 5926 5926 5927 5928 5928 5929 5930
5904 5904 5904 5904 5903 5903 5903 5903 5902 5902 5902 5902 5902 5901 5901 5901 5901 5900 5899 5899 5898 5898 5898 5898 5897 5898 5899 5899 5899 5900 5900 5900 5901 5902 5902 5902 5902 5902 5903 5904 5904 5904 5905 5905 5905 5904 5904 5904 5905 5907 5909 5908 5906 5906 5908 5909 5908 5909 5909 5909 5910 5910 5909 5909 5909 5910 5910 5911 5911 5912 5912 5913 5913 5914 5915 5915 5916 5917 5918 5918 5919 5920 5921 5923 5924 5924 5925 5925 5926 5926 5926 5927 5928 5928 5929 5930 5930
5904 5904 5905 5905 5904 5904 5903 5903 5902 5902 5903 5903 5902 5902 5901 5901 5901 5901 5901 5900 5900 5899 5899 5899 5898 5899 5900 5900 5900 5901 5901 5901 5902 5903 5903 5903 5903 5904 5904 5905 5905 5905 5905 5905 5904 5904 5904 5904 5905 5908 5909 5908 5906 5906 5908 5909 5909 5909 5910 5910 5910 5910 5909 5908 5909 5909 5911 5911 5912 5912 5913 5914 5914 5914 5915 5916 5916 5917 5918 5919 5919 5920 5921 5923 5923 5924 5925 5925 5926 5926 5927 5928 5929 5929 5930 5930 5931
5904 5905 5905 5905 5904 5904 5903 5903 5903 5903 5903 5903 5903 5902 5902 5902 5901 5901 5902 5902 5901 5900 5900 5900 5899 5900 5900 5900 5901 5901 5901 5902 5902 5903 5904 5904 5904 5905 5905 5905 5905 5905 5905 5905 5905 5904 5904 5904 5907 5910 5909 5907 5906 5906 5908 5910 5910 5910 5910 5910 5910 5910 5908 5908 5908 5910 5912 5912 5911 5912 5913 5913 5914 5914 5915 5916 5916 5918 5919 5919 5920 5921 5922 5923 5923 5924 5925 5926 5927 5927 5928 5929 5929 5930 5930 5931 5931
5905 5905 5905 5905 5905 5904 5904 5904 5903 5903 5903 5903 5903 5902 5902 5902 5902 5902 5902 5902 5902 5901 5901 5901 5900 5900 5901 5901 5902 5902 5902 5902 5903 5904 5905 5905 5905 5905 5906 5905 5905 5905 5905 5905 5905 5904 5904 5905 5908 5911 5909 5907 5906 5906 5908 5910 5910 5910 5910 5910 5910 5910 5908 5907 5908 5910 5911 5911 5911 5911 5912 5913 5913 5914 5915 5916 5917 5918 5919 5919 5920 5921 5923 5923 5924 5924 5925 5927 5928 5928 5929 5929 5930 5931 5931 5931 5932
5905 5905 5905 5905 5905 5904 5904 5904 5904 5904 5904 5904 5903 5903 5902 5902 5902 5902 5902 5902 5902 5902 5902 5901 5901 5901 5902 5902 5902 5903 5903 5903 5904 5904 5905 5905 5906 5906 5906 5906 5905 5905 5905 5905 5905 5904 5904 5905 5909 5912 5910 5907 5906 5908 5909 5910 5909 5909 5910 5910 5910 5909 5908 5907 5907 5909 5910 5911 5911 5911 5912 5913 5913 5914 5915 5916 5917 5918 5918 5919 5920 5922 5923 5924 5924 5925 5926 5927 5928 5929 5930 5930 5931 5932 5932 5932 5933
5905 5905 5905 5905 5905 5904 5904 5905 5904 5904 5904 5904 5904 5903 5903 5902 5902 5902 5902 5902 5903 5903 5902 5902 5902 5902 5902 5902 5903 5903 5904 5904 5904 5905 5905 5906 5906 5906 5906 5906 5906 5906 5906 5905 5905 5904 5904 5906 5910 5911 5910 5908 5908 5909 5910 5909 5909 5909 5909 5909 5909 5908 5908 5907 5908 5909 5910 5910 5911 5911 5912 5912 5913 5914 5915 5916 5916 5917 5917 5919 5921 5922 5923 5924 5925 5926 5927 5928 5929 5929 5930 5931 5932 5933 5933 5933 5934
5904 5904 5904 5904 5904 5904 5904 5905 5905 5904 5904 5904 5904 5904 5903 5903 5903 5903 5902 5903 5903 5903 5903 5903 5903 5902 5903 5903 5904 5904 5904 5904 5905 5905 5906 5906 5907 5907 5907 5907 5906 5906 5906 5906 5905 5904 5904 5906 5910 5911 5910 5909 5910 5910 5910 5909 5909 5909 5909 5909 5908 5907 5907 5908 5908 5908 5909 5910 5910 5911 5911 5912 5913 5913 5915 5915 5916 5916 5917 5919 5921 5922 5924 5925 5926 5926 5927 5929 5929 5930 5931 5932 5933 5933 5934 5935 5935
5904 5904 5904 5904 5904 5904 5904 5904 5905 5905 5904 5904 5904 5904 5904 5903 5903 5903 5903 5903 5904 5904 5904 5904 5904 5903 5903 5904 5904 5904 5905 5905 5905 5906 5906 5907 5907 5907 5907 5907 5907 5907 5907 5906 5905 5905 5905 5907 5910 5911 5910 5910 5911 5910 5910 5910 5909 5909 5909 5908 5907 5906 5907 5908 5908 5908 5909 5909 5910 5910 5911 5912 5912 5913 5914 5915 5916 5916 5917 5919 5921 5923 5924 5925 5926 5927 5928 5929 5930 5931 5932 5932 5933 5934 5935 5936 5936
5904 5903 5903 5903 5904 5904 5904 5904 5904 5905 5905 5904 5904 5904 5904 5903 5904 5904 5903 5903 5904 5904 5904 5905 5905 5904 5904 5904 5905 5905 5905 5906 5906 5906 5907 5908 5908 5908 5908 5908 5908 5908 5907 5906 5906 5905 5905 5907 5909 5910 5910 5910 5911 5910 5910 5910 5909 5909 5909 5908 5907 5906 5907 5908 5908 5907 5908 5908 5909 5909 5910 5911 5912 5913 5914 5915 5916 5917 5918 5919 5921 5923 5924 5926 5927 5928 5929 5930 5931 5932 5932 5933 5934 5935 5936 5937 5937
5903 5903 5903 5903 5903 5904 5903 5903 5904 5904 5904 5904 5904 5904 5904 5904 5903 5903 5903 5903 5903 5904 5904 5906 5906 5906 5905 5905 5906 5906 5906 5906 5907 5907 5908 5909 5909 5909 5909 5909 5909 5909 5908 5907 5907 5906 5906 5907 5909 5910 5910 5909 5910 5911 5910 5910 5909 5909 5909 5908 5907 5906 5907 5908 5908 5908 5908 5908 5908 5909 5910 5910 5911 5913 5914 5915 5916 5917 5918 5919 5921 5924 5925 5926 5928 5929 5930 5931 5932 5933 5934 5934 5935 5936 5937 5938 5938
5902 5902 5902 5902 5903 5903 5903 5902 5903 5903 5904 5904 5904 5903 5904 5903 5903 5903 5903 5904 5903 5904 5904 5906 5907 5907 5906 5906 5906 5907 5907 5907 5908 5908 5909 5909 5910 5910 5910 5910 5909 5909 5909 5908 5907 5907 5907 5908 5909 5910 5910 5909 5910 5911 5911 5910 5909 5909 5909 5909 5908 5907 5907 5907 5908 5908 5908 5908 5909 5909 5910 5911 5912 5913 5914 5915 5916 5917 5918 5920 5922 5924 5925 5927 5928 5930 5931 5932 5933 5934 5934 5935 5936 5937 5938 5938 5938
5901 5901 5901 5901 5901 5902 5902 5902 5902 5902 5902 5903 5903 5902 5902 5903 5902 5902 5903 5904 5904 5904 5904 5906 5907 5907 5907 5907 5907 5907 5907 5908 5908 5909 5909 5910 5910 5910 5910 5910 5910 5910 5910 5909 5908 5908 5908 5908 5910 5910 5910 5909 5910 5911 5911 5910 5910 5909 5909 5909 5909 5908 5908 5908 5908 5909 5909 5909 5910 5910 5911 5912 5913 5913 5914 5915 5917 5918 5919 5921 5923 5925 5926 5928 5929 5930 5931 5933 5934 5934 5935 5936 5937 5937 5938 5939 5939
5900 5901 5901 5900 5900 5901 5901 5901 5900 5900 5901 5902 5902 5901 5901 5902 5901 5902 5903 5904 5904 5904 5904 5905 5907 5908 5908 5908 5908 5907 5908 5908 5909 5909 5910 5910 5910 5910 5911 5911 5911 5910 5910 5910 5909 5909 5909 5909 5910 5911 5910 5909 5909 5910 5911 5910 5910 5910 5910 5910 5909 5909 5909 5909 5909 5910 5910 5911 5911 5912 5912 5913 5913 5914 5915 5916 5917 5918 5920 5922 5924 5926 5927 5929 5930 5931 5932 5933 5934 5935 5936 5937 5937 5938 5938 5939 5939
5899 5900 5900 5900 5900 5900 5900 5900 5899 5899 5899 5900 5901 5900 5900 5900 5900 5901 5903 5903 5904 5904 5904 5905 5906 5907 5908 5909 5909 5908 5908 5908 5909 5910 5910 5910 5910 5911 5911 5911 5911 5911 5911 5910 5910 5909 5909 5910 5911 5911 5911 5910 5909 5910 5911 5910 5910 5910 5911 5910 5910 5910 5910 5910 5910 5911 5911 5912 5912 5913 5913 5914 5914 5915 5915 5916 5918 5919 5921 5923 5926 5927 5928 5929 5931 5932 5933 5934 5935 5936 5937 5938 5938 5938 5939 5939 5939
5898 5899 5899 5899 5899 5899 5898 5899 5898 5897 5898 5898 5899 5898 5898 5899 5899 5900 5902 5902 5903 5904 5904 5905 5906 5907 5908 5909 5910 5909 5908 5909 5910 5910 5910 5910 5911 5911 5912 5912 5912 5912 5911 5911 5911 5910 5910 5910 5911 5912 5912 5911 5910 5910 5911 5911 5911 5911 5911 5911 5911 5911 5911 5911 5911 5912 5912 5913 5913 5914 5914 5915 5915 5916 5917 5917 5919 5920 5922 5924 5926 5928 5929 5930 5932 5933 5934 5935 5936 5937 5937 5938 5939 5939 5939 5939 5939
5897 5898 5898 5898 5898 5898 5897 5898 5898 5897 5897 5897 5897 5896 5896 5897 5898 5900 5901 5902 5903 5904 5905 5905 5906 5908 5909 5910 5910 5910 5909 5910 5910 5911 5911 5911 5911 5912 5912 5912 5912 5912 5912 5912 5911 5911 5911 5911 5911 5912 5912 5911 5910 5910 5911 5912 5912 5912 5912 5912 5912 5912 5912 5912 5913 5913 5913 5914 5914 5915 5915 5916 5917 5917 5918 5919 5920 5922 5924 5926 5927 5929 5930 5931 5933 5934 5935 5936 5937 5938 5938 5939 5939 5939 5939 5939 5939
5896 5897 5897 5897 5897 5897 5896 5897 5897 5896 5896 5895 5894 5893 5892 5895 5898 5900 5901 5902 5902 5904 5905 5905 5906 5908 5909 5910 5911 5911 5910 5910 5911 5911 5912 5912 5912 5913 5913 5913 5913 5913 5912 5912 5912 5911 5911 5911 5911 5912 5912 5912 5912 5911 5911 5912 5913 5913 5913 5913 5913 5913 5913 5914 5914 5914 5914 5915 5915 5916 5916 5917 5918 5919 5920 5921 5922 5924 5925 5927 5928 5929 5931 5932 5933 5935 5936 5937 5938 5938 5939 5939 5940 5940 5939 5939 5940
5895 5896 5896 5896 5896 5896 5896 5896 5896 5896 5896 5895 5894 5892 5891 5894 5897 5899 5900 5901 5902 5904 5905 5905 5906 5908 5909 5910 5911 5911 5911 5911 5911 5912 5913 5913 5913 5913 5913 5914 5914 5913 5913 5913 5912 5912 5911 5912 5912 5912 5913 5913 5913 5912 5912 5912 5913 5914 5914 5914 5914 5914 5915 5915 5915 5915 5916 5916 5916 5917 5917 5918 5919 5921 5922 5923 5924 5925 5927 5928 5929 5930 5932 5933 5934 5936 5936 5937 5939 5939 5940 5940 5940 5940 5940 5940 5940
5894 5894 5895 5895 5895 5895 5895 5895 5896 5896 5895 5894 5894 5893 5892 5894 5897 5899 5900 5901 5903 5904 5905 5905 5906 5908 5909 5910 5911 5912 5912 5911 5912 5912 5913 5913 5913 5914 5914 5914 5914 5914 5913 5913 5913 5912 5912 5912 5912 5913 5913 5914 5914 5914 5913 5913 5914 5915 5915 5915 5915 5916 5916 5916 5916 5917 5917 5917 5918 5918 5919 5920 5921 5922 5923 5925 5926 5927 5928 5929 5930 5931 5933 5934 5935 5936 5937 5938 5940 5940 5941 5941 5941 5940 5940 5941 5941
5892 5893 5893 5894 5894 5894 5894 5894 5895 5895 5895 5894 5894 5894 5894 5895 5898 5899 5900 5902 5903 5904 5905 5906 5906 5908 5909 5910 5911 5912 5912 5912 5912 5913 5914 5914 5914 5914 5915 5915 5915 5914 5914 5914 5914 5913 5913 5913 5913 5913 5914 5915 5915 5915 5914 5914 5914 5915 5916 5916 5916 5917 5917 5917 5918 5918 5918 5919 5919 5920 5920 5921 5922 5923 5924 5926 5927 5928 5929 5931 5932 5933 5934 5935 5937 5937 5938 5939 5941 5941 5941 5941 5941 5941 5941 5941 5942
5890 5891 5892 5893 5893 5893 5893 5894 5895 5895 5894 5894 5894 5895 5895 5896 5898 5900 5900 5901 5903 5904 5905 5906 5907 5908 5909 5910 5911 5912 5913 5913 5913 5914 5914 5914 5915 5915 5916 5916 5915 5915 5915 5914 5914 5914 5914 5914 5914 5914 5915 5915 5916 5916 5916 5916 5916 5916 5916 5917 5917 5918 5918 5919 5919 5919 5920 5920 5920 5921 5922 5922 5923 5924 5925 5927 5928 5929 5931 5932 5933 5934 5936 5937 5938 5939 5939 5940 5941 5942 5942 5942 5941 5941 5941 5942 5943
5889 5890 5891 5891 5892 5892 5892 5893 5894 5894 5894 5895 5895 5895 5896 5897 5898 5899 5900 5901 5902 5903 5904 5906 5907 5907 5909 5911 5911 5912 5913 5913 5913 5914 5914 5915 5915 5916 5917 5917 5916 5916 5915 5915 5915 5915 5915 5915 5915 5915 5915 5916 5916 5917 5917 5917 5917 5917 5917 5917 5918 5918 5919 5920 5920 5921 5921 5921 5922 5922 5923 5924 5925 5926 5927 5928 5929 5931 5932 5933 5935 5936 5937 5938 5939 5940 5941 5941 5941 5942 5942 5942 5942 5942 5942 5943 5944
5886 5888 5889 5889 5890 5891 5891 5892 5893 5893 5894 5894 5894 5895 5896 5897 5897 5899 5900 5901 5902 5903 5904 5905 5906 5907 5909 5910 5912 5912 5912 5913 5913 5914 5914 5915 5916 5917 5917 5917 5917 5916 5916 5916 5916 5916 5916 5916 5916 5916 5916 5916 5917 5917 5918 5918 5918 5918 5919 5919 5919 5919 5920 5920 5921 5921 5922 5922 5923 5924 5925 5926 5926 5927 5928 5929 5931 5932 5933 5934 5936 5937 5938 5939 5940 5941 5942 5942 5942 5942 5942 5943 5943 5943 5943 5944 5944
5884 5885 5886 5887 5888 5889 5890 5891 5892 5892 5893 5893 5894 5895 5896 5897 5897 5898 5899 5900 5901 5902 5903 5905 5906 5907 5908 5910 5912 5912 5912 5912 5913 5914 5915 5915 5916 5917 5918 5918 5918 5917 5917 5916 5916 5916 5916 5917 5917 5917 5917 5917 5917 5918 5919 5919 5919 5920 5920 5920 5921 5921 5921 5922 5922 5923 5923 5924 5924 5925 5926 5927 5928 5929 5930 5931 5932 5933 5934 5935 5936 5938 5939 5940 5941 5942 5942 5942 5942 5943 5943 5944 5943 5944 5944 5944 5945
5881 5883 5884 5885 5887 5889 5889 5890 5892 5892 5892 5892 5893 5894 5896 5897 5898 5898 5899 5900 5901 5901 5902 5903 5905 5907 5908 5910 5911 5912 5913 5913 5913 5914 5915 5916 5916 5917 5918 5918 5918 5918 5917 5917 5917 5917 5917 5917 5918 5918 5918 5918 5918 5918 5919 5920 5920 5921 5921 5922 5922 5923 5923 5923 5924 5924 5925 5925 5926 5926 5928 5929 5930 5931 5932 5932 5933 5934 5935 5936 5937 5939 5940 5941 5941 5942 5943 5943 5943 5944 5944 5944 5944 5944 5944 5944 5945
5880 5881 5883 5884 5886 5888 5889 5890 5891 5892 5893 5893 5894 5895 5895 5896 5898 5898 5899 5900 5901 5902 5902 5903 5905 5906 5908 5909 5911 5912 5913 5913 5914 5915 5915 5916 5917 5917 5917 5918 5918 5918 5918 5918 5918 5918 5918 5918 5919 5919 5919 5919 5919 5919 5920 5920 5921 5922 5922 5923 5924 5924 5925 5925 5925 5925 5926 5927 5927 5928 5929 5930 5931 5932 5933 5934 5935 5935 5936 5937 5938 5939 5940 5941 5942 5943 5943 5943 5944 5944 5945 5945 5945 5944 5945 5945 5945
5878 5880 5882 5883 5884 5886 5888 5890 5891 5892 5893 5894 5895 5895 5895 5896 5897 5898 5899 5900 5901 5902 5903 5903 5905 5906 5907 5908 5910 5911 5913 5914 5915 5915 5916 5916 5917 5917 5917 5918 5919 5919 5919 5919 5918 5918 5919 5919 5919 5920 5920 5920 5920 5920 5920 5921 5922 5923 5924 5924 5925 5926 5926 5926 5927 5927 5927 5928 5929 5930 5930 5931 5932 5933 5934 5935 5936 5937 5938 5938 5939 5940 5941 5942 5942 5943 5943 5943 5944 5945 5946 5946 5945 5945 5945 5945 5946
5876 5878 5880 5881 5882 5884 5886 5888 5889 5891 5892 5894 5894 5894 5895 5896 5897 5898 5899 5900 5901 5902 5902 5903 5904 5905 5906 5907 5909 5910 5912 5914 5915 5915 5916 5916 5917 5917 5917 5918 5919 5919 5920 5920 5919 5919 5919 5920 5920 5920 5920 5921 5921 5921 5921 5922 5922 5923 5924 5925 5926 5927 5927 5927 5928 5928 5929 5930 5930 5931 5932 5933 5934 5934 5935 5936 5937 5938 5939 5940 5940 5941 5942 5942 5943 5943 5944 5944 5945 5945 5946 5946 5946 5946 5946 5946 5946
5875 5877 5879 5880 5881 5882 5884 5886 5888 5889 5891 5893 5893 5893 5894 5895 5896 5898 5898 5899 5900 5901 5902 5902 5903 5904 5905 5906 5907 5909 5911 5913 5914 5915 5915 5916 5916 5917 5917 5918 5919 5919 5920 5920 5920 5920 5920 5920 5921 5921 5921 5921 5922 5922 5922 5923 5923 5924 5925 5926 5927 5928 5928 5928 5929 5929 5930 5931 5932 5933 5933 5934 5935 5936 5937 5938 5938 5939 5940 5941 5941 5942 5943 5943 5943 5944 5944 5945 5945 5946 5946 5946 5946 5946 5946 5946 5947
5873 5875 5877 5878 5880 5881 5882 5884 5886 5888 5890 5891 5891 5892 5893 5894 5896 5897 5898 5899 5900 5901 5902 5902 5903 5904 5904 5905 5907 5908 5910 5911 5913 5914 5915 5915 5916 5916 5917 5918 5918 5919 5920 5920 5920 5920 5920 5921 5921 5922 5922 5922 5923 5923 5923 5924 5924 5925 5926 5926 5927 5928 5929 5929 5930 5930 5931 5932 5932 5934 5935 5935 5936 5937 5938 5939 5939 5940 5941 5942 5942 5943 5944 5944 5944 5944 5945 5946 5946 5946 5946 5946 5946 5946 5947 5947 5947
5871 5874 5876 5877 5878 5879 5880 5882 5884 5886 5888 5888 5889 5890 5891 5893 5894 5896 5897 5898 5900 5901 5902 5902 5903 5904 5904 5905 5907 5908 5909 5910 5911 5913 5914 5915 5915 5915 5916 5917 5918 5919 5920 5920 5921 5921 5921 5921 5922 5922 5923 5923 5923 5924 5924 5925 5925 5926 5927 5928 5928 5929 5929 5930 5931 5932 5932 5933 5933 5934 5935 5936 5937 5938 5939 5940 5940 5941 5942 5943 5943 5944 5944 5945 5945 5945 5946 5946 5947 5947 5946 5946 5947 5947 5947 5948 5948
5871 5874 5875 5875 5876 5877 5878 5880 5881 5883 5884 5885 5887 5889 5890 5892 5893 5894 5895 5897 5899 5900 5901 5902 5902 5903 5904 5905 5907 5908 5909 5910 5911 5912 5913 5914 5914 5915 5916 5917 5918 5919 5920 5920 5921 5921 5921 5921 5922 5922 5923 5924 5924 5924 5925 5925 5926 5927 5928 5929 5929 5930 5930 5931 5932 5933 5933 5934 5934 5935 5936 5937 5938 5939 5939 5940 5941 5942 5942 5943 5944 5945 5945 5945 5945 5946 5946 5947 5947 5947 5947 5947 5947 5948 5948 5948 5949
5870 5873 5873 5873 5873 5874 5876 5877 5878 5881 5882 5884 5886 5888 5890 5891 5892 5893 5894 5896 5897 5899 5900 5901 5902 5903 5904 5905 5906 5907 5908 5909 5910 5912 5913 5913 5914 5915 5915 5916 5917 5918 5919 5920 5920 5921 5921 5921 5922 5922 5923 5924 5924 5925 5925 5926 5927 5927 5928 5929 5930 5930 5931 5932 5932 5933 5934 5935 5935 5936 5937 5938 5938 5939 5940 5941 5942 5942 5943 5944 5944 5945 5945 5946 5946 5946 5947 5947 5947 5947 5947 5948 5948 5949 5949 5949 5950
5867 5870 5870 5870 5871 5872 5874 5875 5877 5879 5880 5882 5885 5887 5889 5890 5891 5892 5893 5894 5896 5897 5898 5899 5901 5902 5903 5904 5905 5905 5906 5907 5908 5910 5911 5912 5913 5914 5914 5915 5916 5918 5919 5919 5920 5920 5921 5921 5922 5922 5923 5924 5924 5925 5926 5926 5927 5928 5929 5930 5930 5931 5931 5932 5933 5934 5934 5935 5936 5936 5937 5938 5939 5940 5941 5941 5942 5942 5943 5944 5944 5945 5945 5946 5946 5947 5947 5947 5947 5948 5948 5948 5949 5949 5950 5950 5950
5864 5866 5867 5869 5870 5870 5872 5873 5875 5877 5879 5881 5884 5886 5888 5890 5891 5892 5892 5893 5893 5895 5895 5896 5898 5899 5900 5902 5903 5904 5905 5905 5906 5908 5910 5911 5911 5912 5913 5914 5915 5917 5918 5918 5919 5920 5921 5921 5922 5922 5922 5923 5924 5925 5926 5926 5927 5928 5929 5930 5931 5931 5932 5932 5933 5934 5935 5935 5936 5937 5937 5938 5939 5940 5941 5942 5942 5943 5943 5944 5944 5945 5945 5946 5946 5947 5947 5947 5947 5948 5948 5948 5949 5949 5950 5950 5951
5862 5864 5865 5866 5867 5868 5869 5871 5873 5876 5879 5881 5882 5884 5887 5889 5891 5891 5891 5891 5891 5892 5893 5893 5894 5896 5897 5900 5901 5902 5903 5904 5905 5906 5908 5909 5909 5910 5912 5913 5915 5916 5917 5918 5919 5919 5920 5921 5922 5922 5922 5923 5924 5924 5925 5926 5927 5928 5929 5930 5931 5932 5932 5933 5933 5934 5935 5935 5936 5937 5938 5938 5939 5940 5941 5942 5942 5943 5943 5944 5944 5945 5945 5946 5946 5946 5947 5947 5947 5948 5948 5948 5949 5949 5950 5950 5950
5861 5862 5863 5863 5865 5866 5868 5870 5873 5875 5878 5880 5881 5883 5885 5887 5889 5889 5889 5890 5890 5891 5892 5892 5892 5893 5895 5897 5898 5900 5901 5902 5903 5904 5905 5907 5908 5909 5911 5913 5914 5915 5916 5918 5919 5919 5919 5920 5921 5922 5923 5923 5924 5924 5925 5926 5927 5928 5929 5930 5931 5932 5933 5933 5934 5934 5935 5935 5936 5937 5938 5938 5939 5940 5941 5942 5942 5943 5943 5944 5944 5945 5945 5945 5946 5946 5946 5947 5947 5947 5948 5948 5949 5949 5950 5950 5950
5858 5860 5861 5862 5863 5865 5867 5870 5872 5875 5877 5878 5878 5880 5883 5885 5886 5887 5889 5890 5891 5891 5891 5891 5891 5892 5893 5894 5896 5898 5899 5900 5901 5902 5903 5904 5906 5908 5910 5912 5913 5914 5915 5917 5918 5918 5918 5919 5921 5922 5922 5923 5924 5924 5925 5925 5926 5927 5928 5930 5931 5932 5932 5933 5934 5935 5935 5936 5936 5937 5938 5938 5939 5940 5940 5941 5942 5942 5943 5944 5944 5945 5945 5945 5945 5946 5946 5946 5947 5947 5948 5948 5949 5949 5950 5950 5951
5856 5858 5860 5861 5862 5864 5866 5868 5870 5873 5874 5875 5876 5878 5881 5883 5884 5885 5888 5889 5889 5890 5890 5890 5890 5891 5892 5893 5894 5895 5896 5898 5899 5900 5901 5902 5904 5907 5908 5910 5912 5913 5914 5915 5916 5917 5918 5918 5919 5921 5921 5922 5923 5924 5925 5925 5926 5927 5928 5929 5930 5931 5932 5933 5933 5934 5935 5935 5936 5936 5937 5938 5938 5939 5940 5940 5941 5942 5943 5943 5944 5944 5944 5945 5945 5946 5946 5946 5947 5947 5948 5948 5949 5949 5950 5950 5951
5854 5856 5858 5860 5861 5863 5865 5866 5868 5870 5871 5873 5874 5876 5879 5881 5882 5884 5885 5886 5887 5888 5887 5888 5889 5889 5890 5891 5893 5893 5894 5895 5896 5897 5898 5900 5902 5904 5906 5908 5910 5911 5912 5913 5914 5915 5916 5917 5918 5919 5920 5922 5923 5924 5924 5925 5926 5926 5927 5928 5929 5930 5931 5932 5933 5934 5934 5935 5936 5936 5937 5937 5938 5938 5939 5940 5940 5941 5942 5942 5943 5943 5944 5945 5945 5945 5946 5946 5946 5947 5947 5948 5948 5949 5950 5950 5951
5853 5854 5856 5858 5859 5861 5863 5863 5865 5866 5867 5869 5871 5874 5877 5879 5880 5882 5882 5883 5885 5885 5886 5886 5887 5887 5888 5888 5889 5891 5893 5893 5893 5895 5896 5897 5899 5901 5904 5906 5908 5909 5910 5911 5913 5914 5915 5916 5917 5918 5919 5920 5922 5923 5924 5925 5925 5926 5927 5928 5928 5929 5930 5931 5932 5933 5934 5935 5935 5936 5936 5937 5937 5938 5938 5939 5939 5940 5941 5942 5943 5943 5944 5944 5945 5945 5945 5946 5946 5946 5947 5947 5948 5949 5949 5950 5950
5851 5852 5854 5856 5857 5860 5861 5862 5863 5864 5865 5867 5869 5872 5875 5876 5877 5879 5880 5881 5883 5884 5884 5885 5886 5886 5886 5886 5886 5888 5890 5891 5891 5892 5893 5895 5897 5899 5901 5903 5905 5907 5908 5909 5911 5912 5913 5914 5915 5916 5917 5919 5920 5922 5922 5924 5925 5925 5926 5927 5928 5928 5929 5930 5931 5932 5933 5934 5934 5935 5936 5936 5937 5937 5938 5938 5939 5939 5940 5941 5942 5942 5943 5944 5944 5944 5945 5945 5946 5946 5946 5947 5948 5948 5949 5949 5950
5850 5851 5852 5853 5855 5858 5859 5861 5862 5862 5864 5866 5869 5871 5873 5874 5875 5877 5878 5879 5880 5882 5883 5883 5884 5884 5884 5884 5884 5885 5887 5889 5890 5890 5891 5892 5894 5896 5898 5900 5902 5904 5906 5907 5908 5910 5911 5912 5913 5914 5915 5917 5918 5919 5921 5922 5924 5924 5925 5926 5927 5927 5928 5929 5930 5931 5932 5933 5934 5934 5935 5936 5936 5937 5937 5938 5938 5939 5939 5940 5941 5941 5942 5943 5943 5944 5944 5945 5945 5946 5946 5947 5947 5948 5948 5949 5949
5848 5850 5850 5851 5853 5855 5857 5859 5860 5861 5862 5865 5868 5870 5870 5871 5873 5875 5876 5877 5878 5880 5881 5882 5883 5883 5883 5883 5883 5883 5884 5885 5887 5888 5889 5890 5891 5893 5895 5897 5900 5902 5903 5904 5906 5907 5908 5910 5911 5913 5914 5915 5916 5917 5919 5920 5921 5922 5923 5924 5925 5926 5926 5927 5928 5929 5930 5932 5932 5933 5934 5935 5935 5936 5937 5937 5938 5938 5938 5939 5940 5941 5941 5942 5942 5943 5944 5944 5945 5945 5946 5946 5947 5947 5948 5948 5949
5847 5848 5848 5849 5851 5853 5855 5857 5857 5858 5860 5862 5865 5868 5868 5869 5871 5873 5874 5875 5876 5877 5879 5880 5881 5882 5882 5882 5882 5882 5882 5883 5884 5886 5887 5888 5889 5891 5893 5895 5897 5899 5900 5902 5903 5905 5906 5908 5909 5911 5912 5913 5914 5916 5917 5918 5920 5921 5921 5922 5923 5924 5925 5926 5927 5928 5929 5930 5931 5932 5932 5933 5934 5935 5936 5937 5937 5938 5938 5939 5939 5940 5941 5941 5941 5942 5943 5943 5944 5944 5945 5945 5946 5947 5947 5948 5948
5845 5846 5846 5847 5848 5850 5852 5853 5853 5855 5857 5859 5862 5864 5865 5867 5870 5872 5873 5874 5875 5875 5876 5878 5879 5880 5880 5880 5880 5880 5880 5881 5882 5883 5885 5887 5888 5890 5892 5893 5895 5896 5898 5899 5901 5903 5904 5906 5907 5909 5910 5911 5912 5914 5915 5916 5917 5919 5920 5921 5921 5922 5923 5924 5925 5926 5927 5928 5929 5930 5930 5931 5932 5933 5935 5935 5936 5937 5938 5938 5939 5939 5939 5940 5940 5941 5942 5942 5943 5943 5944 5944 5945 5946 5946 5947 5947
5843 5844 5845 5845 5846 5848 5849 5849 5850 5852 5854 5856 5858 5859 5862 5865 5868 5870 5871 5872 5873 5873 5874 5875 5876 5876 5877 5878 5878 5878 5879 5880 5881 5882 5883 5885 5887 5888 5890 5891 5892 5894 5895 5896 5898 5900 5902 5903 5905 5906 5907 5909 5910 5911 5912 5914 5915 5916 5918 5919 5920 5921 5922 5923 5924 5925 5926 5926 5927 5928 5929 5930 5931 5932 5933 5934 5935 5936 5937 5937 5938 5938 5938 5939 5939 5940 5940 5941 5941 5942 5943 5943 5944 5945 5945 5946 5946
5841 5842 5843 5844 5845 5846 5846 5847 5847 5849 5851 5853 5855 5856 5859 5863 5866 5867 5869 5871 5871 5871 5872 5873 5872 5872 5875 5876 5876 5877 5878 5879 5880 5881 5882 5883 5884 5886 5888 5889 5890 5891 5893 5895 5896 5898 5900 5901 5903 5904 5905 5906 5907 5908 5910 5911 5912 5914 5915 5916 5918 5919 5920 5922 5923 5924 5924 5925 5926 5926 5927 5928 5929 5929 5931 5932 5933 5934 5935 5936 5936 5937 5937 5938 5938 5938 5939 5939 5940 5940 5941 5942 5943 5943 5944 5944 5944